Date String (YYYY-MM-DD hh:mm:ss) UTC,Instrument flags,absolute air pressure of the measurement (hPa),sample flow rate (lpm),inlet stack bypass flow (lpm),air temperature of the measurement (°C),ambient temperature measured by the external sensor (°C),aerosol sample conditioner tube jacket temperature (°C),OPC LED temperature (°C),internal box temperature (°C),relative humidity of the measurement (%),span deviation,mass concentration of particles derived from Lorenz-Mie calculation of OPC scattering (μg/m³),mass concentration of particles derived from Lorenz-Mie calculation of OPC scattering (μg/m³),mass concentration of particles derived from Lorenz-Mie calculation of OPC scattering (μg/m³)
DateTimeUTC,F1_M11,P_M11,Q1_M11,Q2_M11,T1_M11,T2_M11,T3_M11,T4_M11,T5_M11,U1_M11,ZSPAN_M11,X0_M11,X2_M11,X1_M11
2023-10-22 05:00:00,SystemResetWarning,0828.4,5.00,000.00,028.4,025.0,000.0,036.9,029.8,14.7,0000.0,0016.73,0004.07,0002.18
2023-10-22 05:01:00,SystemResetWarning,0828.4,5.00,000.00,028.3,025.4,000.0,036.9,029.9,14.7,0000.0,0017.81,0004.10,0002.20
2023-10-22 05:02:00,SystemResetWarning,0828.4,5.00,000.00,028.3,025.7,000.0,036.9,029.9,14.7,0000.0,0018.24,0004.15,0002.22
2023-10-22 05:03:00,SystemResetWarning,0828.5,5.00,000.00,028.3,026.0,000.0,036.9,029.9,14.7,0000.0,0018.47,0004.23,0002.23
2023-10-22 05:04:00,SystemResetWarning,0828.5,5.00,000.00,028.3,026.3,000.0,036.9,030.0,14.7,0000.0,0018.47,0004.26,0002.23
2023-10-22 05:05:00,SystemResetWarning,0828.4,5.00,000.00,028.3,026.5,000.0,036.9,030.0,14.6,0000.0,0018.94,0004.29,0002.24
2023-10-22 05:06:00,SystemResetWarning,0828.4,5.00,000.00,028.4,026.6,000.0,036.9,030.0,14.6,0000.0,0018.30,0004.31,0002.25
2023-10-22 05:07:00,SystemResetWarning,0828.4,4.99,000.00,028.4,026.8,000.0,036.9,030.1,14.5,0000.0,0018.25,0004.26,0002.25
2023-10-22 05:08:00,SystemResetWarning,0828.4,4.99,000.00,028.4,026.9,000.0,036.9,030.1,14.5,0000.0,0017.95,0004.26,0002.26
2023-10-22 05:09:00,SystemResetWarning,0828.3,5.00,000.00,028.4,027.0,000.0,036.9,030.1,14.4,0000.0,0017.91,0004.20,0002.25
2023-10-22 05:10:00,SystemResetWarning,0828.3,5.00,000.00,028.4,027.1,000.0,036.9,030.1,14.4,0000.0,0017.92,0004.17,0002.22
2023-10-22 05:11:00,SystemResetWarning,0828.4,5.00,000.00,028.5,027.1,000.0,036.9,030.2,14.4,0000.0,0018.43,0004.17,0002.22
2023-10-22 05:12:00,SystemResetWarning,0828.4,5.00,000.00,028.5,027.2,000.0,036.9,030.2,14.4,0000.0,0017.79,0004.17,0002.21
2023-10-22 05:13:00,SystemResetWarning,0828.5,5.00,000.00,028.5,027.3,000.0,036.9,030.2,14.4,0000.0,0016.94,0004.18,0002.20
2023-10-22 05:14:00,SystemResetWarning,0828.6,5.00,000.00,028.5,027.3,000.0,036.9,030.3,14.4,0000.0,0016.50,0004.15,0002.18
2023-10-22 05:15:00,SystemResetWarning,0828.5,5.00,000.00,028.6,027.3,000.0,036.9,030.3,14.4,0000.0,0016.18,0004.11,0002.16
2023-10-22 05:16:00,SystemResetWarning,0828.6,5.00,000.00,028.6,027.3,000.0,037.0,030.3,14.4,0000.0,0016.27,0004.15,0002.16
2023-10-22 05:17:00,SystemResetWarning,0828.5,5.00,000.00,028.6,027.4,000.0,037.0,030.3,14.4,0000.0,0016.10,0004.12,0002.13
2023-10-22 05:18:00,SystemResetWarning,0828.4,5.00,000.00,028.6,027.4,000.0,037.0,030.3,14.4,0000.0,0016.45,0004.08,0002.11
2023-10-22 05:19:00,SystemResetWarning,0828.4,5.00,000.00,028.7,027.4,000.0,037.0,030.4,14.4,0000.0,0017.53,0004.10,0002.12
2023-10-22 05:20:00,SystemResetWarning,0828.4,5.01,000.00,028.7,027.5,000.0,037.0,030.4,14.4,0000.0,0017.94,0004.16,0002.12
2023-10-22 05:21:00,SystemResetWarning,0828.4,5.00,000.00,028.7,027.5,000.0,037.0,030.4,14.4,0000.0,0017.84,0004.17,0002.14
2023-10-22 05:22:00,SystemResetWarning,0828.4,4.98,000.00,028.7,027.6,000.0,037.1,030.5,14.5,0000.0,0017.62,0004.17,0002.14
2023-10-22 05:23:00,SystemResetWarning,0828.4,5.00,000.00,028.8,027.6,000.0,037.1,030.5,14.6,0000.0,0017.83,0004.22,0002.16
2023-10-22 05:24:00,SystemResetWarning,0828.4,5.00,000.00,028.8,027.6,000.0,037.1,030.5,14.5,0000.0,0018.62,0004.22,0002.17
2023-10-22 05:25:00,SystemResetWarning,0828.4,5.01,000.00,028.8,027.7,000.0,037.1,030.5,14.4,0000.0,0018.48,0004.22,0002.17
2023-10-22 05:26:00,SystemResetWarning,0828.4,5.00,000.00,028.8,027.7,000.0,037.1,030.5,14.4,0000.0,0018.74,0004.23,0002.17
2023-10-22 05:27:00,SystemResetWarning,0828.4,4.99,000.00,028.9,027.7,000.0,037.2,030.6,14.5,0000.0,0018.81,0004.21,0002.16
2023-10-22 05:28:00,SystemResetWarning,0828.4,4.99,000.00,028.9,026.6,000.0,037.2,030.5,14.5,0000.0,0018.95,0004.26,0002.15
2023-10-22 05:29:00,SystemResetWarning,0828.4,5.00,000.00,028.8,024.8,000.0,037.1,030.3,14.6,0000.0,0018.89,0004.30,0002.16
2023-10-22 05:30:00,SystemResetWarning,0828.3,5.01,000.00,028.7,024.5,000.0,037.0,030.1,14.8,0000.0,0018.47,0004.35,0002.17
2023-10-22 05:31:00,SystemResetWarning,0828.3,5.02,000.00,028.5,024.6,000.0,037.0,029.9,14.9,0000.0,0017.80,0004.37,0002.22
2023-10-22 05:32:00,SystemResetWarning,0828.3,4.99,000.00,028.5,025.0,000.0,037.0,029.9,15.0,0000.0,0018.16,0004.43,0002.26
2023-10-22 05:33:00,SystemResetWarning,0828.3,5.00,000.00,028.4,025.4,000.0,037.0,029.9,15.0,0000.0,0018.74,0004.46,0002.29
2023-10-22 05:34:00,SystemResetWarning,0828.3,5.00,000.00,028.4,025.7,000.0,037.0,029.9,15.0,0000.0,0017.97,0004.44,0002.31
2023-10-22 05:35:00,SystemResetWarning,0828.3,5.00,000.00,028.4,026.0,000.0,037.0,030.0,15.1,0000.0,0016.56,0004.41,0002.34
2023-10-22 05:36:00,SystemResetWarning,0828.3,4.99,000.00,028.4,026.3,000.0,037.0,030.0,15.0,0000.0,0017.32,0004.45,0002.38
2023-10-22 05:37:00,SystemResetWarning,0828.3,5.00,000.00,028.4,026.5,000.0,037.0,030.0,15.0,0000.0,0018.98,0004.47,0002.43
2023-10-22 05:38:00,SystemResetWarning,0828.3,5.00,000.00,028.4,026.7,000.0,036.9,030.1,15.0,0000.0,0019.41,0004.50,0002.47
2023-10-22 05:39:00,SystemResetWarning,0828.3,5.01,000.00,028.4,026.8,000.0,037.0,030.1,15.0,0000.0,0019.34,0004.47,0002.53
2023-10-22 05:40:00,SystemResetWarning,0828.4,4.99,000.00,028.5,027.0,000.0,037.0,030.1,15.0,0000.0,0020.45,0004.55,0002.58
2023-10-22 05:41:00,SystemResetWarning,0828.4,5.00,000.00,028.5,027.1,000.0,037.0,030.2,15.0,0000.0,0020.88,0004.55,0002.62
2023-10-22 05:42:00,SystemResetWarning,0828.4,5.01,000.00,028.5,027.2,000.0,037.0,030.2,15.0,0000.0,0021.27,0004.50,0002.61
2023-10-22 05:43:00,SystemResetWarning,0828.4,5.00,000.00,028.5,027.2,000.0,037.0,030.2,15.0,0000.0,0020.66,0004.48,0002.60
2023-10-22 05:44:00,SystemResetWarning,0828.5,4.99,000.00,028.6,027.3,000.0,037.0,030.2,15.0,0000.0,0020.80,0004.50,0002.56
2023-10-22 05:45:00,SystemResetWarning,0828.5,4.99,000.00,028.6,027.4,000.0,037.0,030.3,14.9,0000.0,0021.29,0004.50,0002.54
2023-10-22 05:46:00,SystemResetWarning,0828.4,5.01,000.00,028.6,027.4,000.0,037.0,030.3,14.9,0000.0,0021.97,0004.48,0002.53
2023-10-22 05:47:00,SystemResetWarning,0828.4,5.01,000.00,028.6,027.5,000.0,037.0,030.3,14.9,0000.0,0022.01,0004.47,0002.51
2023-10-22 05:48:00,SystemResetWarning,0828.4,5.01,000.00,028.7,027.5,000.0,037.0,030.4,14.9,0000.0,0020.19,0004.47,0002.51
2023-10-22 05:49:00,SystemResetWarning,0828.4,5.00,000.00,028.7,027.5,000.0,037.0,030.4,14.8,0000.0,0019.94,0004.47,0002.48
2023-10-22 05:50:00,SystemResetWarning,0828.4,4.99,000.00,028.7,027.6,000.0,037.1,030.4,14.8,0000.0,0020.01,0004.44,0002.45
2023-10-22 05:51:00,SystemResetWarning,0828.4,5.00,000.00,028.8,027.6,000.0,037.1,030.4,14.8,0000.0,0019.10,0004.39,0002.43
2023-10-22 05:52:00,SystemResetWarning,0828.4,4.99,000.00,028.8,027.6,000.0,037.1,030.5,14.7,0000.0,0019.40,0004.34,0002.40
2023-10-22 05:53:00,SystemResetWarning,0828.4,4.99,000.00,028.8,027.6,000.0,037.1,030.5,14.6,0000.0,0018.28,0004.36,0002.37
2023-10-22 05:54:00,SystemResetWarning,0828.4,5.00,000.00,028.8,027.7,000.0,037.2,030.5,14.7,0000.0,0018.91,0004.34,0002.34
2023-10-22 05:55:00,SystemResetWarning,0828.4,5.00,000.00,028.9,027.7,000.0,037.2,030.5,14.8,0000.0,0018.93,0004.30,0002.33
2023-10-22 05:56:00,SystemResetWarning,0828.4,5.00,000.00,028.9,027.7,000.0,037.2,030.5,14.7,0000.0,0018.54,0004.27,0002.31
2023-10-22 05:57:00,SystemResetWarning,0828.4,4.99,000.00,028.9,026.1,000.0,037.2,030.5,14.7,0000.0,0019.16,0004.28,0002.31
2023-10-22 05:58:00,SystemResetWarning,0828.4,5.00,000.00,028.8,024.6,000.0,037.1,030.3,14.7,0000.0,0019.11,0004.29,0002.31
2023-10-22 05:59:00,SystemResetWarning,0828.3,5.01,000.00,028.7,024.4,000.0,037.0,030.1,14.8,0000.0,0019.62,0004.34,0002.29
